Regional Weather Roundup
Issued by NWS

Home | Current Version | Previous Version | Text Only | Print | Product List | Glossary On
Versions: 1 2 3 4 5 6 7 8 9 10 11 12 13 14 15 16 17 18 19 20 21 22 23 24 25 26 27
000
ASUS42 KFFC 010103
RWRGA
WEATHER ROUNDUP FOR GEORGIA
NATIONAL WEATHER SERVICE PEACHTREE CITY GA
900 PM EDT SAT APR 30 2016

NOTE: "FAIR" INDICATES FEW OR NO CLOUDS BELOW 12,000 FEET WITH NO
SIGNIFICANT WEATHER AND/OR OBSTRUCTIONS TO VISIBILITY.

* = USE WITH CAUTION. THE STATIONS MARKED WITH AN ASTERISK MAY NOT
REPORT WEATHER SUCH AS PRECIPITATION, FOG, OR THUNDER AND ARE NOT
QUALITY CONTROLLED BY NWS.

THE REMARK "TC" DENOTES TEMPERATURE READING IN DEGREES CELSIUS.

GAZ001>058-010200-
NORTH GEORGIA

CITY           SKY/WX    TMP DP  RH WIND       PRES   REMARKS
ATLANTA        CLOUDY    70  63  78 S7        29.98R THUNDER
ATHENS         CLOUDY    71  66  84 NE5       29.97R
CHAMBLEE       CLOUDY    69  68  96 S5        29.97R
PEACHTREE CITY CLOUDY    67  66  97 CALM      29.96R
ROME           CLOUDY    73  64  73 NE3       29.91R
WEST ATLANTA   MOCLDY    69  65  86 SE6       29.95F
GAINESVILLE    LGT RAIN  68  64  87 E12       30.00R
CARTERSVILLE   LGT RAIN  75  61  61 S14       29.93R


CITY           SKY/WX    TMP DP  RH WIND       PRES   REMARKS
DALTON*        CLOUDY    68  68 100 SE12      29.93R
LAWRENCEVILLE* RAIN      72  70  94 S6        29.97R FOG
MARIETTA       LGT RAIN  69  66  92 SE7       29.95S
KENNESAW*      MOCLDY    70  61  73 S6        29.93S
CANTON*        CLOUDY    68  63  83 CALM      29.98F FOG
BLAIRSVILLE*     N/A    N/A N/A N/A MISG      29.99R
$$

GAZ059>098-102>109-010200-
CENTRAL GEORGIA

CITY           SKY/WX    TMP DP  RH WIND       PRES   REMARKS
AUGUSTA-BUSH   CLOUDY    77  61  57 SE9       29.97R
AUGUSTA-DANIEL CLOUDY    79  60  52 SE9       29.99R
COLUMBUS       CLOUDY    80  64  58 W6        29.94R
MACON          CLOUDY    72  67  84 CALM      29.95R
ROBINS AFB     CLOUDY    72  71  96 SE3       29.95R


CITY           SKY/WX    TMP DP  RH WIND       PRES   REMARKS
LAGRANGE*      CLOUDY    78  72  82 CALM      29.95R
SYLVANIA*      MOCLDY    77  69  77 SE5       30.01S
MILLEDGEVILLE* CLOUDY    73  66  78 CALM      29.95R
$$

GAZ099>101-110>166-010200-
SOUTH GEORGIA

CITY           SKY/WX    TMP DP  RH WIND       PRES   REMARKS
SAVANNAH       PTCLDY    75  69  81 E12       30.01S
VALDOSTA       CLOUDY    69  69 100 CALM      29.98R
ALMA           MOCLDY    72  70  93 CALM      30.00R
ST SIMONS      PTCLDY    74  73  97 SE5       30.00R
FT STEWART     PTCLDY    74  69  85 SE1       29.98R
ALBANY         PTCLDY    78  67  68 CALM      29.97R
HUNTER AFB     PTCLDY    75  73  91 E10       29.99S
MOODY AFB      CLOUDY    70  67  89 E9        29.98R
BRUNSWICK      PTCLDY    79  73  83 SE5       30.01R


CITY           SKY/WX    TMP DP  RH WIND       PRES   REMARKS
BAINBRIDGE*    CLOUDY    81  68  65 S6        29.95R
MOULTRIE*      PTCLDY    81  66  61 CALM      29.97R
VIDALIA*       MOCLDY    77  66  69 SE8       29.98R
WAYCROSS*      LGT RAIN  77  67  71 W7        30.01R
DOUGLAS*       LGT RAIN  73  72  94 SE8       30.02R
$$




USA.gov is the U.S. government's official web portal to all federal, state and local government web resources and services.